• In Denmark
  • List of Countries
  • For 7 days
  • Water Temperature
  • Satellite Maps
  • Weather Map
  • Weather Widgets
  • user-avatar
    Login

    Hourly Weather Lankaran

    Today, 19 November, Sunday

    Time Temperature Precipitation Wind Pressure Humidity
    00:00 +5°C° 0 mm 2 mps 636 mmHg 52%
    01:00 +5°C° 0 mm 2 mps 636 mmHg 50%
    02:00 +5°C° 0 mm 2 mps 635 mmHg 48%
    03:00 +5°C° 0 mm 2 mps 635 mmHg 46%
    04:00 +5°C° 0 mm 2 mps 635 mmHg 45%
    05:00 +5°C° 0 mm 2 mps 635 mmHg 44%
    06:00 +5°C° 0 mm 2 mps 635 mmHg 43%
    07:00 +7°C° 0 mm 2 mps 635 mmHg 39%
    08:00 +9°C° 0 mm 2 mps 636 mmHg 35%
    09:00 +12°C° 0 mm 2 mps 637 mmHg 31%
    10:00 +12°C° 0 mm 3 mps 636 mmHg 29%
    11:00 +13°C° 0 mm 3 mps 636 mmHg 28%
    12:00 +14°C° 0 mm 3 mps 636 mmHg 26%
    13:00 +14°C° 0 mm 3 mps 636 mmHg 28%
    14:00 +14°C° 0 mm 3 mps 636 mmHg 30%
    15:00 +13°C° 0 mm 3 mps 635 mmHg 31%
    16:00 +12°C° 0 mm 3 mps 635 mmHg 34%
    17:00 +10°C° 0 mm 3 mps 634 mmHg 36%
    18:00 +9°C° 0 mm 2 mps 634 mmHg 39%
    19:00 +8°C° 0 mm 2 mps 634 mmHg 37%
    20:00 +8°C° 0 mm 2 mps 633 mmHg 36%
    21:00 +8°C° 0 mm 2 mps 633 mmHg 34%
    22:00 +8°C° 0 mm 2 mps 633 mmHg 33%
    23:00 +8°C° 0 mm 2 mps 633 mmHg 32%

    Tomorrow, 20 November, Monday

    Time Temperature Precipitation Wind Pressure Humidity
    00:00 +7°C° 0 mm 2 mps 633 mmHg 32%
    01:00 +7°C° 0 mm 3 mps 632 mmHg 32%
    02:00 +7°C° 0 mm 3 mps 632 mmHg 32%
    03:00 +7°C° 0 mm 3 mps 632 mmHg 32%
    04:00 +7°C° 0.1 mm 3 mps 632 mmHg 35%
    05:00 +7°C° 0.1 mm 3 mps 632 mmHg 38%
    06:00 +6°C° 0.1 mm 4 mps 632 mmHg 41%
    07:00 +7°C° 0.1 mm 4 mps 633 mmHg 39%
    08:00 +8°C° 0.1 mm 4 mps 633 mmHg 38%
    09:00 +11°C° 0.1 mm 4 mps 634 mmHg 36%
    10:00 +12°C° 0 mm 4 mps 634 mmHg 34%
    11:00 +13°C° 0 mm 5 mps 633 mmHg 32%
    12:00 +14°C° 0 mm 5 mps 633 mmHg 31%
    13:00 +14°C° 0 mm 5 mps 633 mmHg 32%
    14:00 +13°C° 0 mm 4 mps 632 mmHg 34%
    15:00 +13°C° 0 mm 4 mps 632 mmHg 35%
    16:00 +12°C° 0 mm 4 mps 632 mmHg 37%
    17:00 +11°C° 0 mm 3 mps 632 mmHg 38%
    18:00 +9°C° 0 mm 3 mps 631 mmHg 40%
    19:00 +9°C° 0 mm 3 mps 631 mmHg 41%
    20:00 +9°C° 0 mm 3 mps 631 mmHg 42%
    21:00 +8°C° 0 mm 3 mps 631 mmHg 43%
    22:00 +8°C° 0 mm 3 mps 631 mmHg 46%
    23:00 +8°C° 0 mm 3 mps 631 mmHg 49%

    Day after tomorrow, 21 November, Tuesday

    Time Temperature Precipitation Wind Pressure Humidity
    00:00 +8°C° 0 mm 3 mps 630 mmHg 52%
    01:00 +8°C° 0 mm 3 mps 630 mmHg 54%
    02:00 +8°C° 0 mm 3 mps 630 mmHg 56%
    03:00 +8°C° 0 mm 3 mps 630 mmHg 58%
    04:00 +8°C° 0 mm 3 mps 630 mmHg 60%
    05:00 +8°C° 0 mm 3 mps 630 mmHg 61%
    06:00 +8°C° 0 mm 3 mps 630 mmHg 62%
    07:00 +8°C° 0 mm 3 mps 630 mmHg 59%
    08:00 +9°C° 0 mm 3 mps 630 mmHg 56%
    09:00 +10°C° 0 mm 4 mps 630 mmHg 54%
    10:00 +11°C° 0.1 mm 4 mps 630 mmHg 51%
    11:00 +12°C° 0.1 mm 4 mps 630 mmHg 47%
    12:00 +13°C° 0.1 mm 5 mps 630 mmHg 44%
    13:00 +13°C° 0.1 mm 5 mps 629 mmHg 45%
    14:00 +12°C° 0.1 mm 5 mps 629 mmHg 47%
    15:00 +12°C° 0.1 mm 4 mps 629 mmHg 48%
    16:00 +11°C° 0 mm 4 mps 628 mmHg 51%
    17:00 +10°C° 0 mm 3 mps 628 mmHg 54%
    18:00 +9°C° 0 mm 3 mps 628 mmHg 57%
    19:00 +9°C° 0 mm 3 mps 628 mmHg 57%
    20:00 +8°C° 0 mm 3 mps 628 mmHg 58%
    21:00 +8°C° 0 mm 3 mps 628 mmHg 59%
    22:00 +8°C° 0 mm 3 mps 628 mmHg 61%
    23:00 +8°C° 0 mm 3 mps 627 mmHg 63%

    22 November, Wednesday

    Time Temperature Precipitation Wind Pressure Humidity
    00:00 +7°C° 0 mm 4 mps 627 mmHg 65%
    01:00 +6°C° 0 mm 4 mps 627 mmHg 66%
    02:00 +6°C° 0 mm 4 mps 627 mmHg 66%
    03:00 +6°C° 0 mm 4 mps 626 mmHg 67%
    04:00 +6°C° 0 mm 4 mps 626 mmHg 67%
    05:00 +6°C° 0 mm 4 mps 626 mmHg 67%
    06:00 +5°C° 0 mm 4 mps 626 mmHg 66%
    07:00 +6°C° 0 mm 4 mps 627 mmHg 62%
    08:00 +7°C° 0 mm 4 mps 627 mmHg 59%
    09:00 +8°C° 0 mm 4 mps 627 mmHg 55%
    10:00 +10°C° 0 mm 4 mps 627 mmHg 52%
    11:00 +11°C° 0 mm 4 mps 627 mmHg 48%
    12:00 +10°C° 0 mm 5 mps 627 mmHg 45%
    13:00 +10°C° 0.1 mm 5 mps 627 mmHg 47%
    14:00 +9°C° 0.1 mm 5 mps 627 mmHg 49%
    15:00 +9°C° 0.1 mm 5 mps 627 mmHg 51%
    16:00 +7°C° 0.2 mm 5 mps 627 mmHg 60%
    17:00 +6°C° 0.2 mm 4 mps 627 mmHg 69%
    18:00 +5°C° 0.2 mm 4 mps 627 mmHg 77%
    19:00 +5°C° 0.3 mm 4 mps 628 mmHg 80%
    20:00 +4°C° 0.3 mm 4 mps 628 mmHg 82%
    21:00 +4°C° 0.3 mm 4 mps 628 mmHg 84%
    22:00 +4°C° 0.9 mm 4 mps 628 mmHg 85%
    23:00 +3°C° 0.9 mm 4 mps 628 mmHg 86%

    23 November, Thursday

    Time Temperature Precipitation Wind Pressure Humidity
    00:00 +3°C° 0.9 mm 4 mps 628 mmHg 87%
    01:00 +3°C° 1.3 mm 4 mps 628 mmHg 87%
    02:00 +1°C° 1.3 mm 4 mps 628 mmHg 87%
    03:00 +1°C° 1.3 mm 4 mps 628 mmHg 86%
    04:00 +1°C° 0.8 mm 4 mps 629 mmHg 85%
    05:00 0°C° 0.8 mm 4 mps 629 mmHg 85%
    06:00 0°C° 0.8 mm 4 mps 629 mmHg 84%
    07:00 0°C° 0.9 mm 4 mps 630 mmHg 81%
    08:00 +1°C° 0.9 mm 4 mps 630 mmHg 78%
    09:00 +1°C° 0.9 mm 4 mps 630 mmHg 75%
    10:00 +1°C° 1.2 mm 4 mps 630 mmHg 74%
    11:00 +1°C° 1.2 mm 4 mps 630 mmHg 72%
    12:00 +1°C° 1.2 mm 4 mps 630 mmHg 70%
    13:00 +1°C° 1.2 mm 4 mps 630 mmHg 72%
    14:00 +1°C° 1.2 mm 4 mps 630 mmHg 73%
    15:00 +1°C° 1.2 mm 4 mps 630 mmHg 75%
    16:00 0°C° 1.6 mm 4 mps 630 mmHg 77%
    17:00 0°C° 1.6 mm 4 mps 631 mmHg 79%
    18:00 -1°C° 1.6 mm 4 mps 631 mmHg 82%
    19:00 -1°C° 1 mm 4 mps 631 mmHg 83%
    20:00 -1°C° 1 mm 4 mps 632 mmHg 83%
    21:00 -2°C° 1 mm 4 mps 632 mmHg 84%
    22:00 -2°C° 1 mm 4 mps 632 mmHg 85%
    23:00 -2°C° 1 mm 4 mps 632 mmHg 85%

    24 November, Friday

    Time Temperature Precipitation Wind Pressure Humidity
    00:00 -2°C° 1 mm 4 mps 632 mmHg 85%
    01:00 -2°C° 0.9 mm 3 mps 632 mmHg 86%
    02:00 -2°C° 0.9 mm 3 mps 632 mmHg 86%
    03:00 -2°C° 0.9 mm 3 mps 633 mmHg 86%
    04:00 -2°C° 1.1 mm 3 mps 633 mmHg 87%
    05:00 -2°C° 1.1 mm 3 mps 633 mmHg 87%
    06:00 -2°C° 1.1 mm 3 mps 633 mmHg 88%
    07:00 -2°C° 1 mm 3 mps 634 mmHg 85%
    08:00 -1°C° 1 mm 3 mps 634 mmHg 83%
    09:00 -1°C° 1 mm 3 mps 634 mmHg 81%
    10:00 -1°C° 0.6 mm 3 mps 634 mmHg 78%
    11:00 -1°C° 0.6 mm 4 mps 634 mmHg 75%
    12:00 -1°C° 0.6 mm 4 mps 634 mmHg 73%
    13:00 -1°C° 0.6 mm 4 mps 634 mmHg 73%
    14:00 -1°C° 0.6 mm 4 mps 634 mmHg 74%
    15:00 -1°C° 0.6 mm 4 mps 634 mmHg 75%
    16:00 -2°C° 0.9 mm 4 mps 634 mmHg 78%
    17:00 -2°C° 0.9 mm 4 mps 634 mmHg 81%
    18:00 -3°C° 0.9 mm 4 mps 634 mmHg 84%
    19:00 -3°C° 1.3 mm 4 mps 634 mmHg 85%
    20:00 -3°C° 1.3 mm 4 mps 635 mmHg 86%
    21:00 -3°C° 1.3 mm 4 mps 635 mmHg 87%
    22:00 -3°C° 1.6 mm 4 mps 635 mmHg 87%
    23:00 -4°C° 1.6 mm 4 mps 634 mmHg 88%
    Show more